Temperature
4 5 5 5 6 6 6 6 6 6 6 6 6 6 6 6 6 6 6 6 6 6 6 6 6 6 7 7 7 7 7 7 7 7 6 7 7 7 7 7 7 7 7
4 4 5 5 5 5 5 5 6 5 5 5 5 5 5 6 6 6 6 6 6 6 6 6 6 6 6 6 6 6 6 6 6 6 6 6 6 6 6 7 7 7 7
3 3 4 4 4 5 5 5 5 5 5 5 5 5 5 5 5 5 5 5 5 5 5 5 5 5 5 5 5 5 5 5 5 5 5 5 5 5 6 6 6 6 6
2 3 3 4 4 4 4 4 4 4 4 4 4 4 4 4 5 4 4 5 5 5 5 5 5 5 5 5 5 5 5 5 5 5 5 5 5 4 4 5 6 5 5
2 2 3 3 3 3 4 4 4 4 4 4 4 4 4 4 4 4 4 4 4 4 4 4 4 4 4 4 4 4 4 4 4 4 4 4 4 4 4 4 5 5 5
1 2 2 2 3 3 3 3 3 3 3 3 3 3 3 3 3 3 3 3 3 3 3 3 3 3 3 4 4 4 4 4 4 4 4 4 4 4 4 4 4 4 4
1 1 1 2 2 2 2 2 2 3 3 2 2 2 2 2 2 2 2 3 3 3 3 3 3 3 3 3 3 3 3 3 3 3 3 3 3 3 3 3 3 3 3
0 1 1 1 1 1 1 2 2 2 2 2 2 2 2 2 2 2 2 2 2 2 2 2 2 2 2 2 2 2 2 2 2 2 3 3 2 2 2 2 2 2 2
-0 0 0 0 1 1 1 1 1 1 1 1 1 1 1 1 1 1 1 1 1 1 1 1 1 1 1 1 2 2 2 2 2 2 2 2 2 2 2 2 1 1 1
-1 -1 -0 -0 -0 0 0 0 0 0 0 1 1 1 1 1 1 1 1 1 1 1 1 1 1 1 1 1 1 1 1 1 1 1 1 1 1 1 1 1 1 1 1
-1 -1 -1 -1 -1 -1 -1 -1 -1 -0 -0 -0 -0 -0 -0 0 0 0 0 0 0 0 0 0 0 0 0 0 0 0 0 0 0 1 1 1 1 1 1 1 1 0 0
-2 -2 -1 -1 -1 -1 -1 -1 -1 -1 -1 -1 -1 -1 -1 -1 -1 -1 -0 -0 -0 -0 -0 -0 -0 -0 -0 -0 -0 -0 -0 -0 -0 -0 0 0 -0 0 0 0 0 -0 -0
-2 -2 -2 -2 -2 -2 -2 -2 -2 -2 -2 -2 -2 -2 -2 -1 -1 -1 -1 -1 -1 -1 -1 -1 -1 -1 -1 -1 -1 -1 -1 -1 -1 -1 -1 -1 -1 -1 -0 -1 -1 -1 -1
-3 -3 -3 -3 -3 -3 -2 -2 -2 -3 -2 -2 -2 -2 -2 -2 -2 -2 -2 -2 -1 -1 -1 -1 -2 -2 -2 -1 -1 -1 -1 -1 -1 -1 -1 -1 -1 -1 -1 -1 -1 -1 -1
-3 -4 -4 -3 -3 -3 -3 -3 -3 -3 -3 -3 -3 -2 -2 -3 -3 -3 -2 -2 -2 -2 -2 -2 -2 -2 -2 -2 -2 -2 -2 -2 -2 -2 -2 -2 -2 -2 -2 -2 -2 -2 -2
-4 -4 -4 -4 -4 -4 -4 -4 -4 -4 -3 -3 -3 -3 -3 -3 -3 -3 -3 -3 -3 -3 -3 -3 -3 -3 -3 -3 -3 -3 -3 -3 -3 -3 -3 -3 -2 -2 -2 -3 -3 -3 -3
-4 -4 -4 -4 -4 -4 -4 -4 -4 -4 -4 -4 -4 -4 -4 -4 -4 -4 -4 -4 -4 -4 -4 -4 -3 -3 -3 -3 -3 -3 -4 -3 -3 -3 -3 -3 -3 -3 -3 -3 -3 -3 -3
-4 -4 -4 -4 -4 -5 -5 -5 -5 -5 -5 -5 -5 -5 -5 -5 -5 -4 -4 -4 -5 -4 -4 -4 -4 -4 -4 -4 -4 -4 -4 -4 -4 -4 -4 -4 -4 -4 -4 -4 -4 -4 -4
-4 -4 -5 -5 -5 -5 -5 -5 -5 -5 -5 -5 -5 -5 -5 -5 -5 -5 -5 -5 -5 -5 -5 -5 -5 -5 -5 -5 -5 -5 -5 -5 -5 -5 -5 -5 -5 -5 -5 -5 -5 -5 -4
-5 -5 -5 -5 -6 -6 -6 -6 -6 -6 -6 -6 -6 -6 -6 -6 -6 -6 -6 -6 -6 -6 -6 -6 -6 -6 -6 -6 -6 -6 -6 -6 -6 -6 -6 -6 -6 -6 -6 -6 -6 -5 -5
-5 -5 -6 -6 -6 -6 -6 -6 -6 -7 -7 -7 -7 -7 -7 -7 -7 -7 -7 -7 -7 -7 -7 -7 -7 -7 -7 -7 -7 -7 -7 -7 -7 -7 -7 -7 -6 -6 -6 -6 -6 -6 -6
-6 -6 -6 -6 -7 -7 -7 -7 -7 -7 -7 -7 -7 -7 -7 -7 -7 -7 -7 -7 -7 -7 -7 -7 -7 -7 -7 -7 -7 -7 -8 -8 -8 -7 -7 -7 -7 -7 -7 -7 -7 -7 -7
-6 -7 -7 -7 -7 -8 -8 -8 -8 -8 -8 -8 -8 -8 -8 -8 -8 -8 -8 -8 -8 -8 -8 -8 -8 -8 -8 -8 -8 -8 -8 -8 -8 -8 -8 -8 -8 -8 -8 -7 -7 -7 -7
-7 -7 -8 -8 -8 -8 -8 -8 -9 -9 -9 -8 -8 -9 -8 -8 -8 -9 -9 -9 -9 -9 -9 -9 -9 -9 -9 -9 -9 -9 -9 -9 -9 -9 -9 -8 -8 -8 -8 -8 -8 -8 -8
-8 -8 -8 -8 -8 -9 -9 -9 -9 -9 -9 -9 -9 -9 -9 -9 -9 -9 -9 -9 -9 -10 -10 -10 -10 -10 -10 -10 -10 -10 -9 -9 -9 -9 -9 -9 -9 -9 -9 -9 -9 -9 -9
-9 -9 -9 -9 -9 -9 -9 -10 -10 -10 -10 -10 -10 -10 -10 -10 -10 -10 -10 -10 -10 -10 -10 -10 -10 -10 -10 -10 -10 -10 -10 -10 -10 -10 -9 -9 -9 -9 -9 -9 -9 -9 -9
Wind_Speed
3 3 3 3 3 3 3 2 1 1 2 1 1 1 1 1 1 1 2 3 3 4 4 4 3 3 3 2 2 3 3 2 2 2 2 2 1 1 1 2 2 2 3
3 3 3 3 3 3 3 2 1 0 1 1 1 1 1 1 1 1 2 2 3 4 4 4 3 3 3 3 2 2 2 1 1 2 2 1 2 2 2 2 1 2 3
3 2 2 2 2 2 2 1 2 1 1 1 2 2 2 2 1 1 0 1 2 3 3 3 3 3 3 3 3 3 3 2 0 1 2 2 2 1 2 1 1 2 2
2 2 1 1 1 1 1 2 2 3 2 2 2 2 2 1 1 1 1 0 1 2 2 3 3 3 3 2 3 2 2 3 2 0 0 1 2 2 1 2 1 2 2
3 2 2 1 1 1 1 2 2 3 3 2 2 2 1 0 0 1 1 1 0 1 2 2 2 2 2 3 2 2 2 2 3 2 1 1 1 0 2 2 2 2 2
2 1 1 1 1 2 2 2 3 3 3 3 3 1 1 1 1 0 0 1 0 0 0 1 1 1 2 2 3 3 2 2 2 2 2 2 2 2 2 3 3 3 2
1 0 1 1 1 2 2 2 2 2 3 3 2 2 1 1 2 1 1 1 1 1 1 0 1 1 2 2 2 2 2 2 2 3 2 3 2 2 2 2 2 3 2
1 1 1 1 0 1 1 1 1 2 2 2 2 2 1 1 0 1 1 1 1 1 1 1 1 1 2 2 2 2 2 2 3 3 3 3 3 2 2 3 2 2 2
1 1 1 0 0 0 1 1 1 1 1 1 2 2 2 1 1 1 1 1 1 1 1 1 1 1 2 2 2 2 2 2 3 3 3 3 3 3 2 2 3 3 3
2 1 1 1 1 1 0 1 1 1 1 1 1 2 2 1 1 1 2 1 1 1 1 1 1 1 2 2 2 2 2 2 2 2 3 3 3 3 3 3 3 3 4
2 2 1 1 0 0 0 1 1 2 2 2 2 2 2 2 1 1 2 2 1 1 2 2 1 2 2 2 2 3 3 3 3 3 3 4 3 3 3 2 3 3 3
2 2 1 1 1 1 1 1 1 1 1 2 2 2 2 1 1 1 2 1 2 2 2 2 1 2 2 2 3 3 3 4 4 4 4 4 3 4 3 3 4 4 4
2 2 1 1 1 1 1 1 1 1 1 1 1 1 2 2 2 2 2 2 2 2 2 2 2 2 3 3 3 3 4 4 5 5 5 5 5 5 4 4 4 4 4
1 2 2 2 2 2 1 1 1 1 1 1 1 1 2 2 2 2 2 2 2 2 2 2 2 3 3 3 3 3 3 4 4 5 5 5 6 6 6 5 5 4 4
3 2 2 2 2 2 2 2 2 2 1 1 1 2 2 2 2 2 2 2 2 2 2 2 3 3 3 3 3 3 3 3 4 4 5 5 6 7 6 5 5 5 4
3 3 3 3 3 3 2 2 2 2 1 1 2 2 2 2 2 2 2 2 2 2 2 2 2 3 3 5 5 4 3 3 4 4 4 5 6 7 7 8 7 6 5
4 4 4 3 3 3 2 2 2 2 1 1 2 2 2 2 2 2 2 2 2 2 2 2 2 3 4 6 6 4 3 3 4 4 4 4 5 5 4 6 6 6 7
4 4 4 4 3 2 2 1 1 1 1 1 2 2 2 2 2 2 2 2 2 2 2 3 3 3 4 6 5 4 3 3 3 4 5 5 5 5 5 4 4 4 5
4 4 3 3 2 2 1 0 1 1 1 2 2 2 2 2 2 2 3 2 2 2 2 2 2 2 4 5 5 5 2 2 3 4 4 5 5 7 7 5 5 5 5
3 2 2 1 1 2 0 0 1 1 2 3 3 3 2 2 2 3 3 2 2 2 2 3 2 3 3 5 5 5 2 2 3 3 4 5 6 7 7 5 5 6 5
3 2 1 1 2 1 1 1 1 2 3 2 2 2 2 2 3 2 2 2 2 2 2 3 3 3 4 5 6 5 2 3 3 3 3 4 7 8 8 7 5 7 5
3 2 1 2 2 1 1 1 2 3 2 1 2 2 2 2 2 1 2 2 1 1 2 2 3 2 3 4 5 6 6 5 4 4 4 4 7 8 7 6 6 7 5
3 2 1 2 2 2 1 2 3 2 1 1 2 2 2 2 2 2 2 2 1 1 2 2 2 3 3 4 7 7 7 7 4 4 6 7 8 6 5 7 7 5 3
3 2 1 2 3 2 2 2 2 1 1 1 2 2 2 2 2 2 2 2 2 2 2 2 2 3 3 3 3 3 4 5 5 4 5 7 6 5 5 5 4 3 3
3 2 2 3 3 2 2 2 2 1 1 1 2 2 2 2 2 2 2 3 3 3 3 2 3 3 4 5 7 5 4 3 3 2 2 2 2 2 2 2 2 2 3
3 2 2 3 3 2 2 2 2 1 1 2 2 2 2 2 2 2 3 5 4 6 6 6 5 5 6 8 8 8 8 7 6 3 2 2 2 3 3 3 3 3 3
Wind_Direction
306 347 6 15 23 31 39 48 74 104 122 117 130 141 164 173 145 126 127 139 144 147 143 131 125 125 131 138 124 113 107 93 101 92 59 14 16 23 12 20 34 38 38
338 340 360 18 27 30 21 22 40 74 152 159 156 155 137 140 130 106 96 126 138 143 147 138 146 143 135 132 127 117 117 112 110 123 113 15 339 343 340 355 5 12 27
280 298 327 349 8 7 2 10 16 17 29 90 97 84 79 70 64 41 65 64 131 134 134 147 143 147 150 162 166 160 149 159 177 101 137 153 216 297 319 317 333 350 7
268 275 283 322 328 316 356 19 29 39 40 83 116 133 147 169 200 192 201 123 105 123 138 149 150 149 151 157 178 157 169 155 172 181 63 134 157 171 279 306 315 319 319
250 250 251 255 305 355 26 29 46 46 42 56 109 132 115 119 105 113 131 130 89 124 142 147 149 154 165 167 163 162 174 173 174 176 158 119 48 166 192 253 287 317 302
270 282 313 46 28 24 36 41 51 39 32 42 54 77 120 119 106 134 171 181 198 197 106 142 145 166 177 181 180 173 187 191 181 179 177 174 176 193 194 230 260 276 293
267 311 21 27 9 10 20 35 52 33 27 35 38 47 56 159 181 203 218 221 218 244 271 239 185 197 207 196 176 172 201 203 193 199 214 208 204 188 198 216 251 271 286
291 258 250 209 260 335 359 25 44 20 22 29 17 24 47 52 318 258 243 251 258 256 245 222 227 227 214 207 189 191 210 207 212 219 216 219 219 206 201 204 209 263 281
298 273 301 279 264 303 318 322 358 4 8 7 15 17 16 30 358 329 283 270 278 289 264 232 232 231 216 209 198 214 218 213 220 223 227 231 232 223 219 215 206 207 244
311 296 280 284 291 284 314 15 7 323 343 1 4 353 349 343 343 335 324 295 285 297 273 244 241 238 223 213 210 227 222 216 230 227 219 236 241 228 222 216 225 224 227
285 282 280 292 308 6 37 34 6 9 2 352 351 355 342 339 347 339 318 318 297 264 262 251 244 255 258 242 232 235 226 220 230 231 225 238 240 228 221 218 223 226 228
290 290 290 308 326 304 338 360 355 351 337 337 344 343 337 346 351 334 326 320 316 302 279 256 249 257 260 254 241 238 233 228 232 233 229 236 238 234 223 218 225 227 229
310 309 305 276 281 290 302 313 313 315 331 342 340 340 339 334 328 322 319 322 317 320 312 283 257 259 257 254 250 241 240 236 236 235 231 232 229 236 229 221 222 229 238
311 318 307 293 296 298 298 298 308 323 336 350 345 334 322 316 313 320 326 323 317 314 299 295 271 258 254 251 250 245 242 243 246 244 236 233 229 232 230 225 222 222 229
327 315 308 303 310 314 315 314 308 315 327 341 332 318 319 323 330 333 328 322 316 309 302 300 300 284 266 252 248 247 244 245 254 252 244 241 239 240 238 232 221 216 220
305 313 316 313 304 301 301 304 299 306 332 329 314 323 335 340 337 333 332 328 323 316 306 296 293 294 289 278 269 264 243 247 248 255 255 251 246 248 250 248 242 229 225
293 296 293 288 290 286 281 270 279 303 322 317 320 330 333 330 325 327 337 331 323 315 308 297 286 281 287 293 285 272 254 248 252 249 251 262 257 256 245 251 249 247 246
292 289 286 290 291 285 287 282 292 300 314 317 317 321 325 318 317 322 322 319 313 304 302 297 286 285 293 296 298 288 269 253 256 253 246 249 256 248 240 239 239 239 245
269 272 270 274 282 281 282 308 329 331 326 311 309 307 302 304 307 307 307 309 312 312 304 296 296 293 298 302 300 305 290 267 265 264 259 253 253 257 250 240 240 248 254
287 286 288 296 279 278 237 172 282 297 289 291 295 299 296 287 286 287 295 301 298 297 300 301 299 290 293 303 305 302 285 282 283 279 267 262 259 263 260 240 235 242 250
308 309 300 289 272 261 182 222 264 270 282 295 302 302 298 287 279 285 290 291 297 308 307 300 300 291 290 302 305 303 288 273 279 281 278 270 270 269 266 258 243 246 248
320 320 315 309 303 260 193 249 272 281 298 304 304 304 306 301 301 293 296 297 288 301 305 304 304 296 294 300 301 302 297 288 275 274 274 272 278 277 273 266 260 263 257
297 297 284 302 306 285 223 242 278 292 309 313 307 306 311 310 305 298 296 300 286 278 290 297 302 307 304 299 300 300 300 297 292 277 275 278 283 285 280 272 267 260 242
282 279 273 282 295 299 295 258 277 296 298 300 304 305 313 315 315 302 289 284 275 273 279 283 289 297 303 301 297 293 297 296 295 291 281 283 282 283 281 280 272 252 239
278 264 253 262 276 290 295 292 290 269 280 292 293 302 305 300 307 307 289 283 263 255 262 263 266 278 290 293 299 298 291 284 274 291 297 287 278 272 271 274 264 247 243
276 273 265 269 279 287 292 295 285 239 232 283 291 290 293 296 301 309 318 312 299 299 297 292 288 283 284 296 301 302 301 300 293 290 276 270 260 258 257 258 262 254 243
Height
1498 1498 1499 1499 1499 1500 1501 1502 1503 1504 1505 1506 1507 1508 1510 1512 1513 1515 1516 1517 1518 1519 1521 1522 1524 1525 1526 1528 1529 1530 1532 1533 1534 1535 1536 1538 1539 1540 1541 1542 1543 1543 1544
1495 1495 1496 1496 1496 1497 1498 1499 1500 1501 1503 1504 1505 1506 1508 1509 1511 1512 1513 1515 1516 1517 1518 1519 1521 1522 1523 1525 1526 1527 1529 1530 1531 1533 1534 1535 1537 1537 1538 1539 1540 1540 1541
1492 1492 1493 1493 1494 1495 1496 1497 1498 1499 1501 1502 1503 1504 1505 1506 1508 1508 1510 1511 1513 1514 1515 1517 1518 1519 1520 1521 1523 1524 1526 1527 1528 1530 1532 1533 1532 1533 1534 1535 1536 1537 1537
1490 1490 1490 1491 1492 1493 1494 1495 1496 1497 1498 1499 1500 1501 1502 1503 1504 1506 1507 1508 1509 1510 1512 1513 1514 1516 1517 1518 1520 1521 1523 1524 1525 1527 1528 1530 1530 1531 1531 1532 1532 1533 1534
1487 1487 1488 1489 1490 1491 1493 1494 1495 1496 1496 1497 1499 1499 1500 1501 1502 1503 1504 1505 1506 1507 1508 1510 1511 1512 1513 1515 1516 1517 1519 1520 1522 1523 1524 1526 1527 1527 1528 1527 1528 1530 1531
1485 1485 1486 1487 1488 1489 1490 1492 1492 1493 1494 1495 1496 1497 1498 1498 1499 1500 1500 1502 1503 1504 1505 1506 1507 1508 1509 1511 1512 1513 1515 1516 1518 1519 1521 1522 1523 1524 1524 1524 1524 1525 1526
1482 1483 1484 1484 1486 1487 1488 1489 1490 1491 1492 1493 1494 1495 1495 1496 1497 1497 1498 1499 1500 1501 1502 1503 1504 1505 1506 1507 1508 1510 1511 1512 1514 1515 1517 1518 1519 1520 1521 1522 1521 1521 1521
1481 1481 1482 1483 1483 1485 1486 1487 1487 1489 1489 1490 1491 1492 1492 1493 1494 1495 1496 1496 1497 1498 1499 1500 1501 1502 1503 1504 1505 1506 1507 1509 1510 1511 1512 1513 1515 1516 1517 1518 1518 1517 1517
1480 1480 1481 1481 1482 1482 1483 1484 1485 1486 1487 1488 1488 1489 1490 1490 1491 1492 1493 1494 1494 1495 1496 1497 1498 1498 1499 1500 1501 1502 1503 1505 1506 1507 1508 1509 1510 1511 1512 1513 1514 1516 1513
1479 1479 1479 1479 1480 1481 1481 1482 1483 1484 1484 1485 1486 1486 1487 1487 1488 1489 1489 1490 1491 1492 1493 1494 1494 1495 1496 1496 1497 1498 1499 1500 1501 1502 1503 1504 1505 1506 1507 1508 1509 1510 1510
1478 1477 1478 1478 1478 1479 1479 1479 1480 1481 1481 1482 1483 1483 1484 1485 1485 1486 1486 1487 1488 1489 1490 1490 1491 1491 1492 1493 1493 1494 1495 1495 1496 1497 1498 1499 1500 1501 1501 1502 1503 1504 1505
1476 1476 1476 1476 1476 1476 1476 1477 1477 1478 1479 1479 1480 1480 1481 1481 1482 1482 1483 1484 1484 1485 1486 1486 1487 1487 1488 1488 1489 1489 1490 1491 1491 1492 1493 1494 1495 1495 1496 1497 1498 1499 1500
1475 1474 1474 1474 1474 1474 1474 1474 1475 1475 1476 1476 1477 1477 1478 1478 1478 1478 1479 1479 1480 1481 1481 1482 1482 1483 1483 1484 1484 1484 1485 1485 1486 1487 1488 1488 1489 1490 1491 1491 1492 1493 1494
1473 1472 1471 1471 1471 1471 1471 1472 1472 1473 1473 1474 1474 1474 1474 1475 1475 1475 1475 1475 1475 1476 1477 1477 1477 1478 1478 1479 1479 1479 1480 1480 1480 1481 1482 1483 1484 1484 1485 1486 1487 1488 1488
1470 1470 1469 1469 1469 1469 1469 1469 1469 1470 1470 1471 1471 1471 1471 1471 1471 1471 1471 1471 1471 1471 1472 1472 1473 1473 1473 1474 1474 1474 1475 1475 1475 1476 1477 1478 1478 1479 1480 1481 1481 1482 1482
1469 1468 1468 1467 1467 1466 1466 1467 1467 1467 1468 1468 1468 1468 1468 1468 1468 1468 1467 1467 1467 1467 1467 1467 1468 1468 1468 1469 1469 1469 1469 1470 1470 1471 1471 1472 1473 1473 1474 1475 1476 1477 1477
1467 1467 1466 1465 1465 1464 1464 1464 1464 1465 1465 1465 1465 1465 1465 1465 1464 1464 1464 1463 1463 1463 1463 1463 1463 1463 1463 1464 1464 1464 1464 1464 1465 1465 1466 1467 1467 1468 1468 1469 1470 1471 1471
1466 1465 1464 1463 1463 1462 1462 1462 1462 1462 1462 1462 1462 1462 1462 1461 1461 1460 1460 1460 1459 1459 1459 1458 1458 1458 1459 1459 1459 1459 1459 1459 1460 1460 1461 1462 1462 1463 1463 1464 1464 1464 1465
1464 1463 1462 1461 1460 1460 1459 1459 1459 1459 1459 1459 1459 1459 1458 1458 1457 1457 1457 1456 1456 1455 1455 1455 1454 1454 1454 1455 1455 1455 1455 1455 1455 1455 1456 1456 1456 1457 1458 1458 1458 1458 1459
1462 1460 1459 1458 1458 1457 1456 1456 1455 1455 1455 1456 1456 1455 1455 1454 1454 1453 1453 1453 1452 1452 1451 1451 1451 1450 1450 1451 1451 1451 1451 1450 1450 1450 1451 1451 1451 1452 1452 1453 1453 1452 1453
1459 1458 1457 1456 1455 1454 1454 1453 1453 1452 1453 1452 1452 1452 1452 1451 1450 1450 1450 1449 1449 1448 1448 1447 1447 1447 1447 1447 1447 1447 1447 1446 1446 1446 1446 1446 1446 1447 1448 1448 1448 1447 1448
1456 1455 1454 1453 1453 1452 1451 1450 1450 1450 1450 1449 1449 1449 1448 1448 1447 1447 1446 1446 1445 1444 1444 1443 1443 1443 1443 1443 1443 1443 1443 1443 1442 1442 1442 1442 1442 1442 1442 1442 1443 1443 1443
1454 1453 1451 1450 1450 1449 1448 1447 1447 1447 1446 1446 1446 1445 1445 1445 1444 1443 1443 1442 1442 1441 1440 1440 1440 1439 1440 1440 1440 1440 1439 1439 1438 1437 1437 1438 1437 1437 1437 1437 1438 1438 1438
1451 1450 1449 1447 1447 1447 1446 1445 1445 1444 1444 1443 1443 1442 1442 1441 1441 1440 1440 1439 1439 1438 1437 1437 1437 1436 1436 1436 1436 1435 1435 1434 1434 1433 1433 1433 1433 1432 1432 1432 1432 1433 1433
1447 1447 1446 1445 1444 1444 1443 1443 1442 1441 1441 1440 1440 1440 1439 1438 1438 1437 1437 1436 1436 1436 1435 1435 1434 1433 1433 1433 1433 1432 1431 1431 1430 1429 1428 1428 1428 1427 1427 1427 1427 1428 1428
1444 1443 1442 1442 1441 1441 1440 1440 1439 1439 1438 1437 1437 1437 1436 1435 1435 1434 1434 1433 1433 1433 1433 1432 1432 1431 1431 1430 1429 1429 1428 1427 1427 1426 1424 1424 1423 1423 1422 1422 1422 1423 1423